User: anonymous   Login
Location: St. Malo Provincial Park
(49.3214°N, 96.9305°W)
Time: 21:24:06
(UTC-05:00)
Language:

Iridium 6 - Orbit

View from above orbital plane
View from above orbital plane
View from above satellite
View from above satellite

Ground track
Ground track

The orbit data is extracted from the following two-line orbital elements,

1 24794U 97020C   17146.52574823 -.00000060 +00000-0 -28465-4 0  9996
2 24794 086.3937 327.9624 0002123 085.8775 274.2663 14.34215750049853
Epoch (UTC): 26 May 2017 12:37:04
Eccentricity: 0.0002123
inclination: 86.3937°
perigee height: 776 km
apogee height: 779 km
right ascension of ascending node: 327.9624°
argument of perigee: 85.8775°
revolutions per day: 14.34215750
mean anomaly at epoch: 274.2663°
orbit number at epoch: 4985

The dashed part of the orbit path shows where the satellite is in the earth's shadow,  

DLR